Regional Weather Roundup
Issued by NWS

Home | Current Version | Previous Version | Text Only | Print | Product List | Glossary On
Versions: 1 2 3 4 5 6 7 8 9 10 11 12 13 14 15 16 17 18 19 20 21 22 23 24 25 26 27 28 29 30 31 32 33 34 35 36 37 38 39 40 41 42 43 44 45 46 47 48 49 50
000
ASUS43 KDMX 152301
RWRIA

WEATHER ROUNDUP FOR IOWA
NATIONAL WEATHER SERVICE DES MOINES IA
500 PM CST FRI DEC 15 2017

NOTE: "FAIR" INDICATES FEW OR NO CLOUDS BELOW 12,000 FEET WITH NO
SIGNIFICANT WEATHER AND/OR OBSTRUCTIONS TO VISIBILITY.

* - THESE STATIONS ARE NOT NWS STATIONS...THUS NOT UNDER NWS
QUALITY CONTROL.  THEY ALSO DO NOT REPORT WEATHER SUCH
AS PRECIPITATION OR FOG.

IAZ001>003-012>014-020>022-031>034-043>046-160000-
   NORTHWEST IOWA

CITY           SKY/WX    TMP DP  RH WIND       PRES   REMARKS
CARROLL *      MOCLDY    41  25  52 SW13      29.79F
CHEROKEE *     CLOUDY    40  23  50 SW8       29.77S
DENISON *      CLEAR     43  25  49 SW9G17    29.80S
LE MARS *      CLOUDY    37  25  60 S6        29.75F WCI  33
ORANGE CITY *  CLOUDY    39  27  60 S7        29.74F WCI  34
SHELDON *      CLOUDY    39  25  56 SW8       29.72F WCI  34
SIOUX CITY     PTCLDY    43  25  49 SW7       29.77F
SPENCER        CLOUDY    40  25  55 SW8       29.75F WCI  34
STORM LAKE *   CLOUDY    41  23  48 SW9       29.76F
$$

IAZ055>058-069>071-079>083-090>094-160000-
   SOUTHWEST IOWA

CITY           SKY/WX    TMP DP  RH WIND       PRES   REMARKS
ATLANTIC *     PTCLDY    43  27  52 SW15      29.82F
AUDUBON *      CLEAR     43  27  52 S7        29.82F
CLARINDA *     CLEAR     43  25  49 SW10G20     N/A
COUNCIL BLFS * PTCLDY    45  27  49 SW18      29.81F
CRESTON *      CLEAR     41  23  48 SW15      29.86F
HARLAN  *      CLOUDY    45  25  45 SW9G17    29.85S
LAMONI         CLOUDY    41  21  44 SW13      29.89F
RED OAK *      CLEAR     45  27  49 SW15G21   29.84F
SHENANDOAH *   CLEAR     45  27  49 SW13      29.87F
$$

IAZ047>049-059>061-072>074-084-160000-
   CENTRAL IOWA

CITY           SKY/WX    TMP DP  RH WIND       PRES   REMARKS
AMES           CLOUDY    41  24  51 SW13      29.83S
ANKENY *       CLOUDY    43  21  42 SW9       29.86S
BOONE *        CLOUDY    41  23  48 SW13G22   29.80F
CHARITON *     CLOUDY    41  21  45 SW13      29.87F
DES MOINES     CLOUDY    43  21  41 SW13      29.85F
GRINNELL*      CLOUDY    39  21  49 SW12      29.86F WCI  31
KNOXVILLE *    CLOUDY    41  19  42 SW12      29.86S
MARSHALLTOWN   CLOUDY    39  23  52 SW12      29.82F WCI  32
NEWTON *       CLOUDY    39  21  48 SW12      29.85S WCI  32
PELLA *        CLOUDY    41  20  43 SW9       29.88F
PERRY *          N/A     41  21  45 SW10      29.82F
$$

IAZ004>006-015-016-023>025-035-036-160000-
   NORTH CENTRAL IOWA

CITY           SKY/WX    TMP DP  RH WIND       PRES   REMARKS
ALGONA *       CLOUDY    41  25  52 SW9       29.77S
CLARION *      CLOUDY    41  25  52 SW13      29.78F
ESTHERVILLE    CLOUDY    38  25  59 SW10      29.74F WCI  31
FORT DODGE *   CLOUDY    40  24  53 SW10      29.79F WCI  33
MASON CITY     CLOUDY    39  23  52 SW9       29.78S WCI  33
FOREST CITY *  CLOUDY    37  27  65 CALM      29.77S
WEBSTER CITY * CLOUDY    41  23  48 SW9       29.78S
IOWA FALLS *     N/A     38  24  56 SW9       29.81F WCI  32
$$

IAZ007>011-017>019-026>030-037>042-050>054-066-160000-
   NORTHEAST IOWA

CITY           SKY/WX    TMP DP  RH WIND       PRES   REMARKS
CEDAR RAPIDS   CLEAR     33  22  63 SW7       29.85S WCI  27
CHARLES CITY * CLOUDY    34  25  69 SW6       29.79S WCI  29
CLINTON *      CLOUDY    35  24  64 SW10      29.89S WCI  27
DECORAH *      CLOUDY    32  28  86 CALM      29.79S
DUBUQUE        PTCLDY    30  25  81 S8        29.84S WCI  22
MONTICELLO *   PTCLDY    32  23  69 S5        29.84F WCI  27
OELWEIN *      CLEAR     32  25  74 SW7       29.82S WCI  26
WATERLOO       PTCLDY    36  22  56 SW9       29.81F WCI  29
$$

IAZ064-065-067-068-078-160000-
   EAST CENTRAL IOWA

CITY           SKY/WX    TMP DP  RH WIND       PRES   REMARKS
DAVENPORT      CLOUDY    36  23  59 SW9       29.91F WCI  29
IOWA CITY      CLEAR     38  22  52 SW8       29.90S WCI  32
MT. PLEASANT * CLEAR     37  20  51 SW10      29.92F WCI  29
MUSCATINE *    CLEAR     39  21  48 SW9       29.91S WCI  33
$$

IAZ062-063-075>077-085>089-095>099-160000-
   SOUTHEAST IOWA

CITY           SKY/WX    TMP DP  RH WIND       PRES   REMARKS
BURLINGTON     CLEAR     38  21  50 SW10      29.93S WCI  31
FAIRFIELD *    CLEAR     39  19  45 SW12      29.90F WCI  32
FORT MADISON * CLEAR     39  21  48 SW7       29.94F WCI  34
KEOKUK *       CLEAR     39  21  48 SW9       29.94F WCI  33
OSKALOOSA *      N/A     38  21  49 SW13G18   29.89F WCI  30
OTTUMWA        CLEAR     40  20  44 SW12      29.89F WCI  33
WASHINGTON *   CLEAR     37  23  56 SW10      29.91S WCI  30
$$

ABBREVIATIONS USED IN REMARKS
   TC - TEMPERATURES IN CELSIUS
  WCI - WIND CHILL INDEX
   HX - HEAT INDEX
  VSB - VISIBILITY
$$





USA.gov is the U.S. government's official web portal to all federal, state and local government web resources and services.